STARLINK-35370 (66085 NORAD) Tracking and Keplerian Element Data

This shows tracking and keplerian element data for the satellite.

Feedback or suggestion? Click here.




ElementValue
Catalog66085
NameSTARLINK-35370
Epoch Orbit1070
Epoch Day354.11052001
Epoch Year2025
RAAN255.1747
Inclination53.1604
Eccentricity6.42E-05
Argument of Perigee128.2937
Mean Anonmoly231.8122
Mean Motion15.30206112
Decay Rate0.00016193
L11 66085U 25235AD 25354.11052001 .00016193 00000+0 55754-3 0 9999
L22 66085 53.1604 255.1747 0000642 128.2937 231.8122 15.30206112 10709



Live tracking and technical data element details for STARLINK-35370 (NORAD 66085). STARLINK-35370 can be tracked NOW for your location showing map with azimuth and elevation plus other details from your city location.







IsCatalogInMostPopularTable: catalog: 66085, numindb: 2
Update: records affected: 1



GetName: 66085 STARLINK-35370

Hit Count: updated at: Tue, 10 Feb 2026 02:13:17 GMT